267  
ASUS43 KFSD 241302  
RWRFSD  
 
WEATHER ROUNDUP FOR SE SOUTH DAKOTA/SW MINNESOTA/NW IOWA  
NATIONAL WEATHER SERVICE SIOUX FALLS SD  
800 AM CDT MON APR 24 2017  
 
NOTE: "FAIR" INDICATES FEW OR NO CLOUDS BELOW 12,000 FEET WITH NO  
SIGNIFICANT WEATHER AND OR S TO VISIBILITY
.  
 
 
SDZ038>040-050-052>070-241400-  
SOUTHEAST SOUTH DAKOTA  
 
CITY SKY/WX TMP DP RH WIND PRES REMARKS
 
BROOKINGS CLOUDY 50 36 58 S15 29.62F  
CHAMBERLAIN CLOUDY 55 40 57 SE8 29.53R  
HURON CLOUDY 52 38 58 S13G23 29.53F  
MADISON FAIR 50 36 57 S18 29.62F  
MITCHELL CLOUDY 53 38 56 S14 29.57S  
SIOUX FALLS CLOUDY 53 37 54 S18G30 29.64F  
WINNER FAIR 55 38 52 S18 29.51S  
YANKTON CLOUDY 54 34 47 S14G23 29.62S  

 
 
MNZ071-072-080-081-089-090-097-098-241400-  
SOUTHWEST MINNESOTA  
 
CITY SKY/WX TMP DP RH WIND PRES REMARKS
 
FAIRMONT PTSUNNY 51 36 56 S15 29.79S  
JACKSON MOSUNNY 52 34 50 S16G23 29.76F  
LUVERNE CLOUDY 50 34 53 S10G20 29.69S  
MARSHALL CLOUDY 56 35 45 S28G35 29.64F  
MONTEVIDEO CLOUDY 55 36 47 SW13 29.65S  
PIPESTONE CLOUDY 52 34 50 S16G24 29.66F  
REDWOOD FALLS PTSUNNY 54 35 48 S20 29.69F  
TRACY CLOUDY 55 37 50 S18G25 29.68F  
WINDOM CLOUDY 54 36 50 S17G25 29.72F  
WORTHINGTON CLOUDY 51 36 56 S18 29.71F  

 
 
IAZ001>003-012>014-020>022-031-032-NEZ013-014-SDZ071-241400-  
NORTHWEST IOWA  
 
CITY SKY/WX TMP DP RH WIND PRES REMARKS
 
CHEROKEE CLOUDY 52 37 55 S16 29.75F  
DENISON CLOUDY 52 37 58 S12G18 29.80F  
ESTHERVILLE MOSUNNY 49 37 63 S17 29.77F  
LE MARS CLOUDY 55 37 50 S16G28 29.70F  
ORANGE CITY CLOUDY 52 37 58 S15 29.70F  
SHELDON MOSUNNY 52 36 54 S20G26 29.70F  
SIOUX CITY PTSUNNY 53 39 59 SE15 29.71F  
SPENCER CLOUDY 51 36 56 MISG 29.75F  
STORM LAKE CLOUDY 50 36 57 S18 29.77F  

 
 
ABBREVIATIONS USED IN REMARKS  
TC - TEMPERATURE IN CELSIUS  
WCI - WIND CHILL INDEX  
HX - HEAT INDEX  
VSB - VISIBILITY  
 
 
 
CLICK HERE TO GO TO PREVIOUS BULLETINS.

The Nexlab SD Page
The Nexlab IA Page
The Nexlab MN Page
The Nexlab NE Page Main Text Page